SBSV Airport Information

Runway Information
Runway 10 Length 9859 ft width 148 ft
Elevation 30 ft Threshold 0 ft Heading 78
Runway 28 Length 9859 ft Width 148 ft
Elevation 64 ft Threshold 0 ft Heading 258
Runway 17 Length 4987 ft width 148 ft
Elevation 28 ft Threshold 0 ft Heading 143
Runway 35 Length 4987 ft Width 148 ft
Elevation 34 ft Threshold 0 ft Heading 323
Airport Frequencies
Type APP Name SALVADOR C Frequency 120.8 MHZ
Type ATIS Name SALVADOR A Frequency 127.75 MHZ
Type CLD Name SALVADOR T Frequency 121.1 MHZ
Type GND Name GND Frequency 121.9 MHZ
Type OPS Name SALVADOR O Frequency 122.5 MHZ
Type TWR Name SALVADOR T Frequency 118.3 MHZ
Airport Navaids
Type NDB Name Alagoinhas Frequency 310 KHZ
Type NDB Name Cimbra Frequency 220 KHZ
Type NDB Name Ipitanga Frequency 240 KHZ
Type VOR-DME Name Salvador Frequency 116500 KHZ
Type NDB Name Salvador Frequency 275 KHZ
Airport Weather Information & NOTAM
ADDS - METARS form results

(0655 UTC 22 April 2018)
 
METAR text: SBSV 220700Z 13009KT 9999 SCT017 27/21 Q1013
Conditions at: SBSV (SALVADOR/DOIS JU, BR) observed 0700 UTC 22 April 2018
Temperature: 27.0°C (81°F)
Dewpoint: 21.0°C (70°F) [RH = 70%]
Pressure (altimeter): 29.91 inches Hg (1013.0 mb)
Winds: from the SE (130 degrees) at 10 MPH (9 knots; 4.7 m/s)
Visibility: 6 or more miles (10+ km)
Ceiling: at least 12,000 feet AGL
Clouds: scattered clouds at 1700 feet AGL
Weather: no significant weather observed at this time

METAR text: SBSV 220600Z 13008KT 9999 SCT020 27/20 Q1013
Conditions at: SBSV (SALVADOR/DOIS JU, BR) observed 0600 UTC 22 April 2018
Temperature: 27.0°C (81°F)
Dewpoint: 20.0°C (68°F) [RH = 66%]
Pressure (altimeter): 29.91 inches Hg (1013.0 mb)
Winds: from the SE (130 degrees) at 9 MPH (8 knots; 4.2 m/s)
Visibility: 6 or more miles (10+ km)
Ceiling: at least 12,000 feet AGL
Clouds: scattered clouds at 2000 feet AGL
Weather: no significant weather observed at this time